Location: Domont
(49.0278°N, 2.3264°E)
Time: 13:21:19
(UTC+00:00)

UWE-3 - Pass Details

Date: 03 July 2022
Orbit: 583 x 677 km, 97.7° (Epoch: 14 August)

Event Time Altitude Azimuth Distance (km) Brightness Sun altitude
Rises 02:52:30 0° 19° (NNE) 2,895 ? -7.9°
Reaches altitude 10° 02:54:46 10° 26° (NNE) 2,000 ? -7.6°
Maximum altitude 02:58:56 43° 98° (E) 894 ? -7.2°
Drops below altitude 10° 03:03:10 10° 171° (S) 2,040 ? -6.7°
Sets 03:05:29 0° 178° (S) 2,961 ? -6.4°
